Weather reports worldwide

Advertisment
Cambridge (NIAB), United Kingdom (99123): temperature & dewpoint: 03.04.2020 20:00:00 - 09.04.2020 20:00:00 (BST)Cambridge (NIAB), United Kingdom (99123): precipitation: 03.04.2020 20:00:00 - 09.04.2020 20:00:00 (BST)
Date & Time tt [°C] td [°C] rr [mm]
09.04.2020 20:00:00 15,9 5,5 0,0
09.04.2020 19:00:00 17,8 5,3 0,0
09.04.2020 18:00:00 19,7 6,4 0,0
09.04.2020 17:00:00 20,7 6,7 0,0
09.04.2020 16:00:00 21,1 7,0 0,0
09.04.2020 15:00:00 21,2 7,2 0,0
09.04.2020 14:00:00 20,8 6,9 0,0
09.04.2020 13:00:00 20,0 8,5 0,0
09.04.2020 12:00:00 18,6 7,6 0,0
09.04.2020 11:00:00 16,4 7,1 0,0
09.04.2020 10:00:00 13,7 7,3 0,0
09.04.2020 09:00:00 11,0 6,9 0,0
09.04.2020 08:00:00 8,2 6,5 0,0
09.04.2020 07:00:00 5,9 4,8 0,0
09.04.2020 06:00:00 5,7 4,2 0,0
09.04.2020 05:00:00 6,1 4,6 0,0
09.04.2020 04:00:00 7,2 5,6 0,0
09.04.2020 03:00:00 7,4 5,0 0,0
09.04.2020 02:00:00 8,5 5,5 0,0
09.04.2020 01:00:00 8,7 5,4 0,0
09.04.2020 00:00:00 11,3 7,2 0,0
08.04.2020 23:00:00 11,6 7,3 0,0
08.04.2020 22:00:00 12,5 7,5 0,0
08.04.2020 21:00:00 14,2 8,0 0,0
08.04.2020 20:00:00 15,9 8,6 0,0
08.04.2020 19:00:00 18,8 8,4 0,0
08.04.2020 18:00:00 20,9 8,6 0,0
08.04.2020 17:00:00 21,1 7,0 0,0
08.04.2020 16:00:00 21,8 8,2 0,0
08.04.2020 15:00:00 21,0 7,1 0,0
08.04.2020 14:00:00 20,5 7,6 0,0
08.04.2020 13:00:00 18,6 6,3 0,0
08.04.2020 12:00:00 17,5 6,8 0,0
08.04.2020 11:00:00 16,1 7,3 0,0
08.04.2020 10:00:00 13,6 6,6 0,0
08.04.2020 09:00:00 10,7 5,8 0,0
08.04.2020 08:00:00 8,0 5,3 0,0
08.04.2020 07:00:00 5,9 3,8 0,0
08.04.2020 06:00:00 5,3 3,2 0,0
08.04.2020 05:00:00 5,4 3,7 0,0
08.04.2020 04:00:00 4,8 3,0 0,0
08.04.2020 03:00:00 5,6 3,2 0,0
08.04.2020 02:00:00 7,3 4,1 0,0
08.04.2020 01:00:00 7,5 3,0 0,0
08.04.2020 00:00:00 10,5 4,4 0,0
07.04.2020 23:00:00 11,2 4,7 0,0
07.04.2020 22:00:00 11,6 4,5 0,0
07.04.2020 21:00:00 12,6 3,2 0,0
07.04.2020 20:00:00 13,9 1,4 0,0
07.04.2020 19:00:00 15,2 0,7 0,0
07.04.2020 18:00:00 16,6 0,6 0,0
07.04.2020 17:00:00 17,3 -0,6 0,0
07.04.2020 16:00:00 17,8 1,9 0,0
07.04.2020 15:00:00 17,9 3,8 0,0
07.04.2020 14:00:00 18,0 4,0 0,0
07.04.2020 13:00:00 17,2 4,4 0,0
07.04.2020 12:00:00 16,5 3,9 0,0
07.04.2020 11:00:00 15,7 5,6 0,0
07.04.2020 10:00:00 12,7 4,9 0,0
07.04.2020 09:00:00 9,1 4,1 0,0
07.04.2020 08:00:00 4,7 3,2 0,0
07.04.2020 07:00:00 0,8 0,0 0,0
07.04.2020 06:00:00 1,6 0,6 0,0
07.04.2020 05:00:00 1,8 0,6 0,0
07.04.2020 04:00:00 2,0 0,6 0,0
07.04.2020 03:00:00 3,8 2,0 0,0
07.04.2020 02:00:00 4,6 2,2 0,0
07.04.2020 01:00:00 6,2 3,8 0,0
07.04.2020 00:00:00 6,9 3,2 0,0
06.04.2020 23:00:00 6,4 3,1 0,0
06.04.2020 22:00:00 7,5 2,6 0,0
06.04.2020 21:00:00 10,2 3,8 0,0
06.04.2020 20:00:00 12,5 3,3 0,0
06.04.2020 19:00:00 15,6 4,2 0,0
06.04.2020 18:00:00 16,1 3,1 0,0
06.04.2020 17:00:00 15,7 3,4 0,0
06.04.2020 16:00:00 16,0 1,4 0,0
06.04.2020 15:00:00 16,2 0,8 0,0
06.04.2020 14:00:00 16,8 1,8 0,0
06.04.2020 13:00:00 16,3 5,2 0,0
06.04.2020 12:00:00 14,7 6,8 0,0
06.04.2020 11:00:00 13,2 7,7 0,0
06.04.2020 10:00:00 12,8 7,9 0,0
06.04.2020 09:00:00 13,1 9,9 0,0
06.04.2020 08:00:00 13,4 9,4 0,0
06.04.2020 07:00:00 12,2 7,3 0,0
06.04.2020 06:00:00 12,0 6,2 0,0
06.04.2020 05:00:00 12,0 5,3 0,0
06.04.2020 04:00:00 11,9 4,4 0,0
06.04.2020 03:00:00 12,5 3,6 0,0
06.04.2020 02:00:00 12,6 3,1 0,0
06.04.2020 01:00:00 13,4 3,3 0,0
06.04.2020 00:00:00 13,8 3,6 0,0
05.04.2020 23:00:00 13,2 4,1 0,0
05.04.2020 22:00:00 14,4 3,7 0,0
05.04.2020 21:00:00 15,6 3,3 0,0
05.04.2020 20:00:00 16,9 2,4 0,0
05.04.2020 19:00:00 17,9 0,6 0,0
05.04.2020 18:00:00 19,4 2,7 0,0
05.04.2020 17:00:00 19,8 3,4 0,0
05.04.2020 16:00:00 19,8 3,0 0,0
05.04.2020 15:00:00 19,8 2,5 0,0
05.04.2020 14:00:00 18,5 3,8 0,0
05.04.2020 13:00:00 17,8 3,2 0,0
05.04.2020 12:00:00 17,1 4,4 0,0
05.04.2020 11:00:00 15,1 4,8 0,0
05.04.2020 10:00:00 12,7 4,1 0,0
05.04.2020 09:00:00 10,7 3,9 0,0
05.04.2020 08:00:00 8,4 3,7 0,0
05.04.2020 07:00:00 6,2 3,1 0,0
05.04.2020 06:00:00 6,1 3,0 0,0
05.04.2020 05:00:00 5,9 2,4 0,0
05.04.2020 04:00:00 7,0 3,0 0,0
05.04.2020 03:00:00 7,3 3,0 0,0
05.04.2020 02:00:00 6,0 2,9 0,0
05.04.2020 01:00:00 5,4 2,5 0,0
05.04.2020 00:00:00 6,4 2,8 0,0
04.04.2020 23:00:00 7,5 3,1 0,0
04.04.2020 22:00:00 8,6 3,2 0,0
04.04.2020 21:00:00 9,5 3,1 0,0
04.04.2020 20:00:00 11,3 2,7 0,0
04.04.2020 19:00:00 13,0 2,9 0,0
04.04.2020 18:00:00 14,3 3,5 0,0
04.04.2020 17:00:00 15,1 2,9 0,0
04.04.2020 16:00:00 15,2 3,8 0,0
04.04.2020 15:00:00 14,8 3,0 0,0
04.04.2020 14:00:00 14,0 4,7 0,0
04.04.2020 13:00:00 14,5 5,9 0,0
04.04.2020 12:00:00 13,0 5,1 0,0
04.04.2020 11:00:00 12,3 5,0 0,0
04.04.2020 10:00:00 10,7 4,9 0,0
04.04.2020 09:00:00 8,2 3,9 0,0
04.04.2020 08:00:00 5,6 2,4 0,0
04.04.2020 07:00:00 2,1 1,1 0,0
04.04.2020 06:00:00 1,7 0,4 0,0
04.04.2020 05:00:00 2,8 0,9 0,0
04.04.2020 04:00:00 3,0 0,7 0,0
04.04.2020 03:00:00 3,9 1,4 0,0
04.04.2020 02:00:00 4,2 1,2 0,0
04.04.2020 01:00:00 4,7 1,8 0,0
04.04.2020 00:00:00 4,2 1,3 0,0
03.04.2020 23:00:00 5,8 2,0 0,0
03.04.2020 22:00:00 8,2 2,3 0,0
03.04.2020 21:00:00 9,0 2,4 0,0
03.04.2020 20:00:00 9,7 2,0 0,0

tt = temperature
td = dewpoint
rr = precipitation

Next stations